Theta_e
342 344 345 346 347 349 350 352 353 355 356 357 356 356 357 355 355 355 357 358 357 356 355 354 353 353 353 351 352 354 357 357 356 357 359 360 362 360 364 362 365 366 367 366 363 362 361 360 362 362 363 363 363 362 362 361 365 364 363 366 359 358 356 358 358 360 356 350 356 350 352 356 354 361 358 356 356 357 359 360 361 361 361 362 365
341 342 343 345 346 348 350 351 353 352 355 356 356 357 358 357 355 355 356 357 357 356 355 355 355 354 354 353 353 353 354 355 354 356 357 359 365 366 365 364 365 366 370 369 367 364 362 360 362 362 364 365 365 365 365 364 363 362 361 359 362 358 356 356 356 359 350 346 345 346 349 351 356 353 352 351 354 355 356 359 361 357 354 356 362
339 340 342 343 345 347 349 351 352 353 354 355 357 357 357 356 358 358 356 356 356 357 357 356 357 358 357 355 353 353 357 358 355 358 361 359 363 365 367 367 366 367 371 370 368 365 364 362 361 364 365 365 364 363 364 362 361 359 360 358 357 360 359 360 362 359 345 350 353 352 342 344 352 355 353 351 350 352 354 352 354 352 352 356 361
336 338 339 342 344 346 348 350 351 352 354 354 355 356 356 357 358 358 357 358 358 358 359 360 361 361 360 358 357 355 355 358 360 360 360 360 359 362 365 367 365 366 367 368 368 368 367 363 362 362 366 367 365 363 363 361 362 361 359 360 361 354 350 352 358 362 357 353 344 345 344 345 337 343 348 349 348 348 350 348 351 351 352 358 361
337 337 339 341 343 345 347 349 351 351 352 354 355 355 355 357 359 360 358 358 358 359 359 359 360 358 358 358 358 358 357 357 356 356 358 359 358 360 360 365 365 365 366 367 367 369 369 367 363 364 365 366 366 363 362 360 361 361 363 362 361 356 349 351 356 357 359 362 354 349 343 339 339 342 345 346 346 343 344 346 352 352 349 357 356
337 337 338 340 342 345 348 350 349 350 352 354 355 355 356 357 359 360 360 359 359 360 360 359 358 357 354 352 351 351 352 352 351 353 353 355 353 357 361 363 363 365 366 366 366 367 368 368 366 364 363 365 364 362 363 364 363 362 363 362 361 363 360 353 350 361 356 366 361 355 352 344 344 347 346 339 359 347 348 345 347 347 348 352 362
337 338 339 339 342 344 347 348 349 349 352 355 355 356 357 358 359 360 360 360 360 361 360 360 359 358 356 354 353 352 351 353 357 357 356 357 360 358 361 363 365 363 364 365 365 368 369 368 367 365 363 364 366 365 363 362 362 362 364 364 364 366 364 356 351 349 358 359 356 354 355 355 350 349 343 350 341 349 350 346 347 350 349 348 349
335 336 338 340 342 343 345 347 349 349 352 354 354 356 357 359 359 359 360 360 360 361 360 360 358 358 357 356 355 354 353 355 358 360 361 362 360 360 360 361 365 365 364 366 366 366 368 368 368 365 363 362 362 363 362 363 365 366 366 367 369 368 363 358 354 351 350 352 356 353 355 357 358 355 352 349 346 345 344 348 349 349 348 345 346
335 335 337 339 341 343 346 347 349 350 352 353 353 355 357 359 359 360 360 360 360 362 360 360 360 359 358 356 356 357 358 359 360 361 360 363 360 361 362 361 364 366 366 365 366 366 367 367 368 366 363 362 364 362 361 363 365 364 365 365 365 367 364 361 361 356 352 349 355 355 357 356 355 355 356 356 349 344 339 342 345 349 348 349 352
336 336 337 339 342 343 346 348 349 349 351 354 354 355 356 358 358 359 359 360 361 361 361 360 360 360 358 357 357 358 359 361 360 361 362 364 360 361 363 362 362 364 366 367 367 366 366 367 364 363 362 361 362 362 362 363 364 365 366 365 367 365 366 363 358 358 357 358 358 360 357 357 357 357 352 350 349 351 341 341 343 344 343 349 355
334 336 337 340 342 344 346 346 348 349 351 352 352 353 354 356 357 357 359 360 361 361 361 360 360 360 359 358 357 358 359 360 359 361 362 362 360 359 361 362 362 362 362 366 366 365 365 366 362 362 363 364 363 363 363 360 360 362 365 367 368 366 362 364 360 362 361 361 359 360 356 351 352 350 352 352 350 346 345 341 342 344 343 345 352
333 336 337 339 341 344 345 346 347 349 349 350 350 352 353 355 356 357 359 360 361 361 361 360 359 360 360 360 358 359 360 358 359 359 361 360 360 359 362 362 363 362 364 362 362 362 366 364 365 364 364 364 363 364 365 363 362 364 366 367 367 367 366 364 362 359 357 360 356 354 355 354 356 354 352 355 354 351 349 347 345 351 350 346 350
332 336 338 338 339 341 343 345 347 348 348 349 349 350 353 355 356 356 357 360 361 361 361 361 360 360 360 359 360 361 361 361 360 360 361 360 361 361 362 360 362 361 362 361 361 363 365 365 365 364 364 365 365 366 365 367 367 364 366 366 366 365 364 364 361 358 356 357 353 354 354 354 354 356 358 354 354 353 353 349 346 348 345 345 351
334 335 336 340 341 341 343 345 346 346 347 348 349 351 352 353 355 355 357 359 361 361 361 361 361 362 361 361 360 361 361 361 360 359 359 361 362 362 360 359 360 360 361 362 362 362 363 364 366 365 367 367 366 366 366 367 368 366 366 365 363 366 366 364 363 361 361 361 360 357 354 353 353 355 355 355 352 352 351 348 351 353 347 345 354
334 336 336 339 341 342 343 344 345 346 346 347 348 351 353 353 355 356 357 358 360 360 361 361 360 362 362 361 361 362 360 360 360 360 361 361 361 360 363 361 359 362 362 364 366 364 364 365 365 364 365 367 367 366 365 366 368 368 367 366 366 366 366 365 362 360 356 358 360 360 357 355 355 356 353 355 354 353 352 352 352 347 343 344 346
331 334 336 339 342 343 343 344 345 346 347 347 348 351 351 353 355 356 356 357 358 360 360 360 361 361 362 362 362 362 363 362 363 364 363 362 363 362 364 365 364 364 367 367 367 365 364 363 365 364 367 366 368 368 367 365 368 367 367 367 365 363 365 365 364 362 359 360 358 361 359 353 356 355 357 357 356 356 356 357 356 354 347 342 346
333 332 335 339 341 342 342 344 344 344 345 346 349 351 352 353 354 355 356 357 357 360 360 361 362 361 362 361 361 362 361 360 359 360 358 361 363 363 361 362 364 367 366 367 367 367 365 365 364 363 367 368 367 368 367 367 368 367 364 368 365 364 366 365 364 364 364 359 359 359 359 359 359 363 360 358 362 365 360 359 358 353 354 348 344
338 334 336 339 341 342 342 343 344 344 345 346 351 351 353 354 354 354 355 355 356 357 358 360 360 360 361 361 362 362 360 360 359 360 361 362 362 363 362 363 362 362 364 362 367 367 368 367 367 367 366 366 366 366 367 367 368 366 366 368 365 368 366 366 365 363 362 363 361 360 360 358 361 360 358 358 363 364 360 359 359 360 359 352 350
341 336 335 337 339 341 342 342 344 344 347 347 349 350 352 353 353 353 354 354 354 355 357 359 360 358 359 360 361 361 361 361 361 363 364 362 359 360 361 361 362 364 366 366 367 365 366 367 369 367 367 367 367 367 368 368 369 367 367 365 367 369 366 365 368 366 363 363 363 360 363 360 363 360 360 357 361 362 360 359 360 363 360 359 356
342 340 336 335 337 339 341 342 342 343 345 346 347 348 348 350 352 352 353 355 356 355 357 357 358 358 358 360 362 363 364 362 364 363 360 360 361 360 362 361 362 363 363 365 365 364 364 364 363 363 362 364 366 366 366 367 369 368 367 364 366 368 366 365 365 367 363 364 363 362 363 363 364 363 362 359 359 363 362 358 359 361 362 362 361
342 343 343 340 339 339 342 343 344 345 346 345 345 346 347 349 350 352 353 352 353 354 355 356 357 358 359 359 359 361 361 361 361 362 361 362 363 364 362 362 365 363 364 363 363 365 366 364 363 365 363 365 367 367 367 368 369 368 368 368 368 370 367 365 367 366 365 366 366 364 364 364 366 363 362 360 356 356 360 360 361 360 355 359 359
341 343 343 344 345 342 340 340 343 346 346 344 345 346 346 348 352 354 354 353 351 352 354 356 357 357 357 357 358 359 361 362 360 361 361 362 363 364 365 365 363 364 365 362 364 363 365 365 364 365 366 366 368 370 366 366 367 366 366 364 366 368 368 368 367 367 367 366 366 365 364 364 365 364 362 358 357 355 356 355 356 356 355 356 361
339 342 343 345 348 347 344 342 341 343 344 344 346 346 347 348 352 354 354 355 355 355 355 357 356 357 357 357 358 358 360 360 358 358 357 357 359 362 365 364 362 362 365 364 364 363 366 367 366 366 368 367 369 368 368 368 367 367 366 364 363 366 366 366 366 367 366 367 365 365 363 364 362 361 362 360 359 360 359 358 358 359 359 357 359
339 340 341 343 345 348 349 348 347 344 344 343 345 347 348 351 352 353 354 356 355 358 359 359 358 357 357 357 357 357 356 356 355 357 356 357 356 358 363 362 362 362 363 366 365 365 367 368 366 367 368 368 368 367 367 368 368 368 368 368 368 367 366 366 365 365 366 366 364 364 363 363 364 364 364 364 363 362 362 362 362 363 363 360 361
338 339 340 342 344 347 348 348 346 347 348 347 348 348 348 353 355 353 354 357 356 360 359 358 359 358 358 357 355 355 355 355 354 354 355 355 356 356 359 360 359 360 362 364 367 368 368 368 364 366 367 368 367 368 368 366 367 368 368 367 367 368 367 367 366 367 366 367 366 364 363 364 365 364 364 362 363 364 365 363 361 361 362 361 362
337 339 340 342 344 347 349 348 347 349 349 350 351 353 354 355 355 357 357 358 360 360 359 359 359 357 359 359 358 356 355 355 355 354 355 355 356 356 357 358 359 359 361 360 363 364 365 367 366 366 367 368 369 369 369 369 366 367 368 367 367 368 366 367 366 366 367 366 365 366 366 366 364 362 362 363 366 366 366 363 363 364 364 364 365
336 338 340 342 344 345 345 346 348 348 349 351 353 353 355 354 354 356 358 359 360 360 359 358 358 358 359 359 360 360 359 356 357 357 357 357 357 356 356 356 358 358 358 357 358 361 364 363 365 364 363 365 367 366 369 370 368 368 368 368 364 365 366 366 366 364 364 365 365 365 366 366 366 365 363 363 364 365 364 365 366 367 366 365 363
335 336 338 339 340 340 342 344 345 345 347 348 351 352 352 352 352 353 356 358 359 360 360 359 359 358 360 360 362 362 362 360 360 362 361 359 358 358 359 359 359 359 357 356 356 356 358 360 361 361 364 365 366 365 367 369 368 366 365 366 366 365 363 364 364 366 364 363 364 364 363 364 365 366 365 365 365 364 365 364 365 365 366 365 362
333 334 335 336 336 338 341 342 344 345 346 348 348 348 349 352 353 354 355 355 357 358 357 359 359 359 358 358 360 361 363 363 361 361 361 360 360 360 360 361 361 359 357 357 358 357 357 358 360 361 362 362 360 361 363 365 366 367 366 363 365 365 365 364 364 362 362 364 364 362 361 361 366 367 368 365 364 365 364 363 366 368 367 365 364
332 333 334 335 336 338 340 342 343 343 345 346 347 347 347 349 350 351 351 352 354 353 354 354 353 355 357 358 359 359 359 360 360 360 361 361 360 360 359 359 358 359 359 359 359 358 357 356 357 359 360 358 359 360 364 359 358 362 364 362 363 365 365 364 364 364 361 361 361 361 360 364 367 366 365 361 353 352 354 361 364 366 366 365 363
330 331 332 334 335 335 336 336 336 339 341 342 343 345 348 348 350 349 348 350 351 349 351 350 350 352 355 357 358 358 358 357 359 361 362 361 362 361 360 360 359 358 358 361 359 356 355 355 354 355 356 355 357 358 358 343 340 341 357 361 363 364 365 365 363 364 363 360 360 361 362 363 367 366 366 358 352 349 349 348 348 354 360 365 362
329 331 332 333 332 332 331 332 333 335 336 336 336 336 338 342 346 344 345 346 348 349 349 349 350 351 352 352 353 353 354 355 356 357 358 359 360 360 359 359 357 356 358 356 356 358 358 356 354 354 353 353 355 341 333 338 339 336 344 359 360 360 360 361 361 360 361 361 361 361 360 359 361 363 363 364 366 358 348 346 345 345 346 348 352
330 331 332 331 330 330 330 330 332 333 333 334 333 332 333 335 337 344 346 345 345 346 347 348 350 352 352 351 350 351 351 351 352 354 356 356 355 354 355 355 356 357 356 357 357 356 357 357 357 356 354 356 356 334 329 330 331 332 332 346 357 359 359 359 360 360 361 362 362 362 361 360 359 361 363 363 366 366 364 353 348 347 348 346 338
331 331 330 329 329 328 328 329 330 331 332 333 334 333 334 335 335 338 340 340 340 340 341 341 345 348 352 348 349 348 347 347 348 348 351 353 354 354 355 355 355 356 355 354 354 356 357 359 359 359 360 352 348 331 325 326 326 326 329 338 356 356 358 358 360 360 359 360 361 361 361 361 362 363 365 363 363 363 364 365 366 366 365 363 356
329 329 329 328 329 328 328 327 328 329 329 330 331 332 333 333 333 332 334 334 335 337 337 338 340 343 346 346 345 345 345 346 348 349 349 349 348 347 348 350 350 351 351 352 353 353 353 354 355 356 354 348 339 323 322 322 321 324 326 339 356 353 354 356 358 358 360 360 361 359 360 360 361 362 363 362 361 361 362 361 362 361 361 362 363
328 327 327 328 329 330 330 328 329 328 328 328 328 329 329 328 331 331 331 331 331 333 335 338 339 340 341 341 341 341 342 342 342 342 341 340 341 344 345 347 345 346 349 350 352 352 351 351 352 353 351 348 338 319 321 321 320 323 328 355 358 356 355 355 356 357 357 359 359 359 360 360 361 362 357 346 350 360 359 359 360 361 361 361 361
328 328 328 330 331 331 331 330 328 327 327 327 328 328 328 327 327 328 329 330 330 330 332 335 336 338 340 342 342 341 341 341 342 341 340 342 343 343 345 344 344 346 346 347 348 349 350 349 349 349 347 343 336 323 316 316 318 321 339 358 357 357 357 357 356 356 356 356 355 356 357 356 357 360 336 325 330 345 357 357 357 357 358 357 357
327 329 329 330 330 330 329 327 327 326 326 327 327 327 326 326 327 328 328 328 329 329 331 333 335 337 339 341 342 343 343 342 341 340 340 341 343 344 344 345 343 341 341 341 342 342 344 346 346 346 344 338 335 324 314 313 315 317 341 355 355 356 357 358 358 358 358 360 359 353 355 360 358 356 325 322 326 345 356 357 356 355 355 355 357
327 327 327 327 328 328 328 328 326 325 326 328 328 327 325 325 326 328 328 328 328 328 331 333 335 338 339 340 341 340 340 340 340 340 341 341 340 342 343 343 342 341 339 340 340 338 338 341 344 343 342 338 336 330 315 313 313 314 337 353 353 355 355 355 355 357 358 359 360 357 354 351 350 333 316 319 323 343 357 357 357 355 354 355 356
326 327 328 328 329 327 325 325 324 325 327 329 328 327 327 326 326 327 327 327 328 330 332 335 337 338 338 338 338 337 337 337 335 335 337 337 338 338 337 337 338 338 336 336 337 337 335 335 338 341 341 340 337 334 326 313 312 313 318 344 344 344 345 348 350 352 353 356 356 358 345 323 320 319 316 314 316 317 340 356 357 356 354 354 359
325 325 327 326 326 325 323 323 325 326 324 325 326 326 326 327 326 325 325 327 330 333 334 335 336 334 333 332 333 334 333 334 335 335 335 336 335 334 334 333 333 334 335 335 335 334 333 332 334 337 338 339 339 336 330 313 311 312 315 327 336 335 338 343 344 345 347 347 348 348 351 327 318 314 312 309 308 313 318 338 353 357 357 348 344
325 325 324 323 322 323 323 323 325 326 327 327 327 325 325 325 324 323 324 327 331 333 334 334 333 333 331 331 332 333 333 333 334 334 332 332 332 332 331 330 329 329 329 330 331 331 330 329 330 332 333 335 337 335 335 320 312 310 310 314 329 330 328 338 338 339 339 340 341 340 343 332 316 312 308 306 305 309 313 329 344 320 316 320 340
322 323 323 322 321 321 321 322 324 326 328 328 327 326 325 324 323 324 326 329 331 332 332 331 331 331 332 332 332 332 332 332 332 332 331 330 331 331 330 330 329 329 329 329 330 329 328 327 328 329 330 331 333 334 328 330 316 309 308 310 312 321 318 334 334 334 336 336 339 339 340 330 313 307 305 305 307 307 318 336 319 313 314 316 329
322 322 322 322 321 321 321 323 324 326 328 329 328 326 326 325 324 327 329 331 331 332 331 330 330 330 330 330 330 331 332 332 331 331 330 329 329 330 331 331 331 331 330 330 330 331 329 327 326 327 329 329 331 332 329 326 325 313 309 307 309 310 313 326 334 333 335 335 336 338 333 311 307 304 307 309 310 316 332 313 310 313 317 324 344
319 319 322 322 321 321 321 322 323 325 326 328 329 327 326 325 327 331 332 332 332 332 331 329 328 328 328 329 331 332 331 331 331 330 328 327 328 328 327 329 330 330 330 329 329 331 330 328 328 326 325 326 328 329 330 329 325 323 314 311 312 313 313 314 329 329 331 332 323 312 311 313 315 316 318 323 329 330 321 319 318 319 335 348 349
320 320 321 321 321 321 321 320 321 322 324 325 327 328 325 325 328 331 333 333 333 332 331 329 328 328 327 327 327 327 327 328 328 328 328 327 326 326 326 327 327 328 329 329 328 328 328 329 326 325 324 325 326 327 328 329 330 329 325 317 315 316 322 322 327 326 322 320 318 317 318 319 323 326 336 336 337 335 325 325 326 334 342 343 341
319 321 321 321 320 319 319 319 319 321 322 322 323 324 325 327 329 330 332 333 333 332 331 329 328 327 328 328 326 324 323 324 325 325 326 326 325 325 325 325 325 325 327 327 327 327 326 326 325 325 325 325 324 325 325 327 328 328 328 328 329 328 324 325 327 327 327 329 327 326 324 319 322 321 326 329 329 330 334 334 335 333 336 337 335
321 321 322 322 321 319 319 319 319 319 321 321 321 322 324 326 328 329 330 331 331 330 328 329 328 328 327 326 325 325 324 323 324 323 322 323 324 324 323 323 324 325 324 325 325 325 325 325 324 325 325 324 323 322 323 322 323 323 326 326 326 327 327 327 325 325 329 327 327 326 323 326 327 328 328 329 328 330 329 328 328 327 331 334 332
319 320 321 320 320 319 319 318 317 319 319 320 320 320 323 325 326 329 330 328 327 328 327 327 326 325 326 327 326 325 323 322 322 324 323 323 323 323 324 324 325 324 325 325 324 323 323 325 324 324 323 323 322 321 319 305 310 303 311 322 323 323 324 325 321 310 330 326 326 324 322 322 322 321 322 322 321 322 324 324 324 324 327 327 326
318 320 321 321 320 319 318 317 317 318 318 318 319 321 322 323 325 327 328 326 326 325 325 324 324 324 324 324 324 324 324 323 322 321 321 320 316 307 314 324 323 316 307 302 307 320 320 325 322 322 323 322 320 320 302 297 296 296 297 298 300 299 299 312 310 307 322 323 322 320 318 318 318 318 318 318 317 318 319 319 322 320 322 322 321
317 318 318 318 319 319 318 317 317 318 317 317 318 319 321 323 324 325 326 326 325 323 322 321 322 322 321 322 321 321 322 323 323 322 322 321 321 320 300 301 309 309 303 297 296 298 301 304 320 322 319 304 304 300 295 294 295 296 295 297 297 296 297 299 303 323 322 319 318 317 316 317 317 317 316 316 316 316 316 317 318 319 319 318 317
Wind_Speed
9 10 11 10 10 9 8 8 8 8 7 8 8 8 9 8 8 8 7 7 6 6 6 6 5 5 4 4 3 4 3 3 3 3 3 2 2 1 1 1 1 0 1 1 1 1 1 1 1 2 1 1 2 3 3 4 4 4 4 3 5 5 4 4 4 3 4 3 2 3 3 2 1 1 2 1 1 0 0 1 1 2 2 2 2
8 9 10 10 9 10 9 8 9 10 8 9 9 8 8 9 9 8 7 8 7 7 6 6 6 5 4 4 3 3 3 3 3 3 3 3 3 2 2 1 1 0 0 1 1 1 1 1 1 1 1 2 2 3 4 3 4 4 4 3 3 5 4 5 5 4 3 5 4 3 4 3 2 1 1 1 0 0 1 1 1 2 2 2 1
9 9 10 10 11 11 9 9 9 10 10 10 9 8 9 9 8 8 8 8 7 7 6 6 5 4 3 2 3 3 2 2 2 2 2 2 3 3 2 2 2 1 1 1 1 1 1 1 1 1 1 2 2 3 3 3 3 4 4 4 4 2 2 3 3 4 5 3 1 2 5 3 3 3 3 4 2 1 0 1 1 2 2 2 2
11 10 11 11 11 11 9 9 9 9 8 9 9 9 8 8 9 9 8 8 7 7 7 5 5 4 2 1 3 1 2 2 2 2 2 2 3 3 3 2 2 2 1 1 1 1 2 1 1 1 1 1 1 2 3 3 3 3 3 4 4 3 4 4 3 3 4 5 4 4 4 3 5 6 5 3 3 2 1 1 0 1 1 1 2
11 11 11 11 11 12 11 10 9 9 10 10 10 9 7 10 9 9 8 8 7 7 7 6 5 5 3 3 3 3 2 3 3 3 3 2 2 3 3 3 3 2 2 1 0 1 1 1 1 1 1 1 1 1 2 3 3 3 3 3 4 5 4 4 2 3 4 3 3 2 2 4 6 5 5 4 4 3 3 2 1 2 1 1 2
12 11 12 12 12 11 10 10 11 10 10 10 9 10 9 8 9 9 7 7 7 8 8 7 6 5 6 5 5 4 4 4 5 4 4 4 4 3 3 3 4 3 2 1 0 0 1 1 1 1 0 0 1 1 2 2 2 2 3 3 4 4 4 4 3 3 3 3 2 2 2 4 3 5 4 3 3 4 3 3 2 1 1 1 1
11 12 12 13 12 12 12 12 12 11 10 9 9 9 10 8 9 9 8 7 7 8 9 7 6 5 6 6 5 5 5 4 4 3 3 3 2 3 3 3 4 4 3 3 2 0 1 2 1 1 0 0 0 0 0 1 2 2 2 3 3 3 3 4 5 3 2 2 3 3 1 2 2 4 5 3 3 3 4 3 4 2 1 1 1
11 12 12 13 13 13 13 13 12 12 10 10 10 9 11 10 10 9 7 7 7 8 9 7 6 6 6 6 5 5 5 5 5 4 3 2 3 3 3 3 3 3 3 3 3 2 1 2 2 1 1 1 1 1 1 2 2 1 2 2 2 2 2 3 5 4 3 3 3 3 2 2 1 1 3 3 1 3 4 2 2 4 3 3 3
12 11 12 13 13 14 13 13 14 12 11 11 11 10 10 9 9 9 8 8 8 9 8 8 6 7 6 5 5 4 4 3 4 4 4 3 4 3 3 3 3 3 3 3 3 3 2 2 2 2 2 2 1 2 1 1 1 1 1 1 1 1 1 2 3 4 4 4 3 3 2 2 1 1 1 1 3 3 4 5 5 4 3 4 4
12 13 13 13 14 14 14 13 12 12 11 10 10 10 9 9 9 9 9 7 8 10 9 9 8 7 6 6 6 5 4 2 2 3 3 3 4 5 4 4 3 4 3 3 3 3 3 2 3 3 3 2 3 2 2 2 2 1 1 1 1 1 1 1 3 3 3 3 3 3 3 2 1 1 1 2 1 1 3 4 4 5 4 4 4
10 12 13 13 14 14 12 13 13 11 9 10 10 10 10 10 10 10 10 7 9 10 10 10 8 8 7 7 8 6 6 4 4 3 3 4 5 5 5 4 3 3 3 3 4 4 4 3 4 4 3 2 3 3 3 3 2 2 1 1 1 1 1 0 1 2 2 2 3 3 3 4 3 3 3 3 3 2 3 4 4 4 4 4 5
11 11 12 11 9 9 10 11 11 11 10 11 10 10 10 10 10 11 10 9 8 9 10 10 9 8 7 8 8 7 7 5 6 5 5 5 5 5 4 4 4 3 4 4 4 5 4 4 4 4 4 3 3 3 3 3 2 2 1 1 1 2 1 1 1 1 1 1 2 2 2 2 2 3 4 2 2 3 3 3 3 3 1 3 3
11 10 10 10 11 11 11 11 10 10 11 12 12 12 11 10 11 12 11 10 9 9 10 10 9 9 8 8 8 6 7 7 6 6 5 5 5 5 4 5 4 5 5 5 5 6 4 5 5 4 4 4 4 3 3 3 2 2 1 2 1 2 2 2 1 1 1 2 2 2 2 3 3 3 3 3 2 1 2 3 3 2 2 2 3
10 10 11 11 11 12 12 12 12 11 12 12 12 11 10 10 11 12 11 11 9 9 10 10 10 9 9 8 7 7 7 7 7 6 7 6 5 5 6 5 5 6 6 6 5 6 5 5 5 5 5 4 4 4 4 3 3 3 2 2 2 1 2 2 2 1 1 1 1 2 2 2 2 3 3 3 3 3 3 4 4 2 2 2 1
9 10 12 12 13 14 12 12 12 12 13 13 11 11 10 10 11 12 11 10 10 11 9 10 9 9 8 8 7 7 7 7 6 6 6 7 6 6 6 5 5 5 5 5 5 6 6 5 5 6 5 5 4 5 4 4 3 3 2 2 2 1 3 3 3 3 3 2 2 2 3 2 2 2 3 3 3 3 4 4 4 5 4 3 2
11 11 12 13 13 13 12 12 12 11 12 11 12 11 12 11 12 13 13 12 11 11 10 10 9 8 9 9 9 8 6 6 5 5 5 6 6 6 6 6 5 4 4 4 5 6 6 6 6 6 6 5 5 5 5 4 3 3 2 3 4 2 2 3 3 3 3 3 3 2 3 3 2 2 3 2 3 3 3 3 3 4 5 5 5
11 11 11 12 11 12 12 13 11 11 11 12 12 13 14 12 12 13 12 11 12 12 11 10 9 9 9 9 9 8 8 8 7 8 8 7 6 6 6 6 5 4 4 4 5 6 6 7 6 6 6 5 5 5 5 5 4 4 3 3 4 4 3 4 4 3 4 3 3 3 3 3 2 2 3 2 2 2 2 2 2 3 3 4 5
11 11 10 11 12 13 13 11 13 14 15 14 13 13 11 11 12 13 12 12 11 11 11 10 10 10 9 10 9 9 8 8 8 7 7 6 6 5 5 5 6 5 4 3 4 6 6 6 5 5 5 5 5 5 5 5 4 4 4 4 4 3 4 4 4 4 4 3 3 3 2 3 2 3 3 2 2 2 2 2 2 1 1 3 3
9 10 10 10 10 11 11 12 14 13 12 12 11 11 10 11 11 12 13 13 13 11 10 9 10 8 8 10 10 9 8 7 7 6 6 6 7 6 6 6 5 5 4 5 5 5 5 5 5 5 5 5 5 5 5 4 4 4 4 4 4 4 4 4 4 4 4 3 4 4 3 4 3 4 4 4 2 3 2 2 2 1 2 2 3
8 8 9 11 11 13 13 12 13 13 13 11 12 11 12 12 11 11 10 10 10 11 10 10 10 9 8 8 9 8 8 7 7 7 7 7 7 7 7 6 6 5 5 6 6 6 6 6 6 6 5 5 5 5 5 5 4 4 4 4 3 4 4 5 5 3 4 3 4 5 4 4 3 3 4 3 3 3 3 3 2 2 2 2 2
7 7 7 9 10 11 11 11 11 10 10 11 11 13 12 11 11 12 12 12 12 11 10 10 9 9 9 9 9 8 9 7 7 7 7 7 6 6 6 5 5 6 5 6 6 6 6 6 6 5 5 5 5 5 4 4 4 5 5 5 4 4 5 5 4 5 4 4 4 5 5 5 4 4 4 4 4 4 3 3 3 3 4 2 3
7 7 8 8 8 9 10 10 8 8 9 11 11 11 12 12 10 10 10 11 12 11 10 10 9 8 10 9 9 8 8 7 8 8 8 7 6 6 5 5 6 6 6 6 7 6 6 6 6 6 6 6 5 6 6 5 5 5 6 5 5 5 5 5 5 5 5 4 4 5 5 5 4 4 4 5 4 4 4 4 4 4 4 4 2
7 6 5 5 6 7 8 10 11 11 11 11 10 11 11 12 11 9 10 10 10 10 9 8 8 8 9 9 9 8 8 9 10 9 10 9 7 6 5 5 5 5 6 6 6 6 6 6 6 5 5 6 6 6 5 6 5 6 6 6 5 5 5 5 5 5 5 4 5 5 5 5 3 4 4 5 5 5 5 5 5 4 5 5 4
8 6 5 5 5 6 6 8 8 9 11 13 11 11 10 9 9 10 11 11 10 8 7 7 7 9 9 9 9 8 10 10 10 9 10 9 8 6 6 6 5 5 6 6 6 6 6 6 6 6 6 6 6 6 6 6 6 6 6 6 6 6 5 5 5 5 5 4 5 5 5 5 4 5 5 5 5 5 4 4 5 4 4 5 5
9 9 8 8 7 8 8 8 10 8 7 8 9 10 10 9 8 9 9 9 8 7 7 8 8 8 8 9 9 10 10 10 11 9 10 9 8 7 6 7 6 6 6 6 6 6 6 7 7 7 7 7 7 7 6 6 6 6 6 6 6 6 6 6 6 5 5 5 5 6 6 5 5 5 5 5 4 5 4 4 5 4 5 5 4
9 9 9 9 9 7 5 6 6 4 6 7 7 8 8 8 7 6 7 7 7 6 6 7 7 8 8 9 9 9 10 11 10 10 9 9 8 8 7 7 8 7 7 6 6 6 6 6 6 6 6 6 6 6 6 6 6 6 6 6 6 6 6 6 6 5 5 5 5 6 6 5 5 6 6 6 5 6 5 5 5 5 5 4 4
8 8 8 7 6 8 7 6 6 6 4 4 5 5 6 7 7 7 7 8 8 9 9 8 7 8 8 8 8 9 9 10 9 9 8 7 8 8 8 8 8 8 7 7 7 6 5 5 5 6 6 5 6 5 5 5 6 6 6 6 6 6 6 6 6 6 6 6 6 6 6 6 6 6 6 6 6 6 5 6 6 6 5 5 6
7 7 8 8 6 5 6 6 7 6 6 6 5 6 9 10 9 9 10 10 8 9 10 10 9 9 8 8 8 8 8 8 7 7 7 7 7 7 7 7 6 7 7 7 7 7 6 6 6 5 5 5 4 5 5 5 5 5 5 6 6 6 6 6 6 6 6 6 6 6 6 6 6 6 6 6 6 6 5 6 5 5 5 6 6
7 7 6 6 6 5 6 6 5 6 7 7 7 7 9 8 8 6 6 5 2 4 6 6 7 7 8 8 8 7 5 6 6 6 7 7 7 7 6 6 6 6 6 6 6 7 6 6 5 5 5 5 5 4 4 4 5 5 6 6 6 6 6 6 7 7 6 6 6 7 7 7 6 7 7 7 7 6 6 7 6 6 6 6 7
8 8 7 7 7 6 6 6 5 6 7 7 7 7 7 9 10 8 7 7 7 5 5 6 5 6 7 7 6 5 4 7 7 7 7 7 7 7 7 7 7 7 6 5 5 5 5 6 6 5 5 5 5 4 5 6 6 5 5 5 5 5 6 6 6 7 7 8 8 7 7 7 7 8 8 9 10 11 10 9 7 7 7 7 7
8 8 8 8 8 8 8 8 7 6 5 4 2 2 6 8 8 9 9 7 9 8 7 5 4 4 5 6 5 5 5 6 7 7 5 5 5 5 5 5 5 5 5 4 4 5 5 4 5 5 5 4 4 4 3 6 7 8 6 6 5 6 6 6 7 7 7 8 8 7 7 7 7 9 10 12 12 12 11 12 12 12 10 9 9
8 8 9 9 9 10 10 9 8 8 7 7 7 7 6 1 8 8 5 3 4 6 7 7 6 6 6 5 5 6 6 5 3 4 5 5 5 4 5 5 5 5 4 4 4 3 2 2 2 3 3 2 1 11 7 2 5 6 7 6 6 6 6 6 6 7 7 7 7 7 7 6 6 7 7 7 8 11 12 12 12 12 12 12 12
9 8 9 9 9 10 10 9 8 9 10 9 9 11 9 7 4 8 8 7 6 4 3 4 6 7 6 4 3 4 4 4 3 4 4 5 6 6 6 6 6 5 3 3 3 3 3 2 2 2 2 4 5 8 5 4 1 4 7 7 6 6 6 6 6 6 6 6 6 6 6 6 6 6 6 7 7 7 8 11 12 11 11 12 13
10 9 9 9 9 8 9 10 9 10 10 10 12 12 10 9 8 5 5 5 7 7 7 7 5 4 4 6 6 6 7 6 6 4 5 5 6 5 5 5 5 5 4 4 3 3 3 3 3 4 6 7 7 9 8 6 3 1 4 6 5 6 6 6 6 6 6 6 6 6 6 6 6 6 5 6 6 7 8 7 7 6 7 9 12
11 11 10 10 11 11 11 10 9 9 8 9 9 9 9 9 7 9 7 8 8 9 10 10 8 6 7 7 9 7 6 5 5 6 5 3 4 5 5 5 6 5 6 4 3 4 4 3 3 4 6 7 6 9 7 7 6 4 2 5 2 3 3 3 4 4 4 4 5 5 6 6 6 5 4 4 6 7 7 7 7 8 8 8 8
11 11 10 10 10 10 11 10 9 9 10 10 9 9 10 9 8 9 8 8 8 8 8 8 9 7 7 7 6 8 10 9 8 7 7 8 7 7 7 5 7 5 5 6 5 5 5 5 4 5 5 7 7 10 9 8 6 5 4 2 1 1 1 1 1 1 2 2 3 3 4 5 4 5 4 4 4 5 7 7 8 8 8 8 8
12 12 12 11 11 11 11 9 9 10 11 11 10 9 10 10 9 9 8 7 8 8 6 7 8 6 8 7 7 9 9 8 7 7 6 4 3 4 5 5 5 6 7 7 8 7 7 8 7 7 7 8 7 10 10 10 9 7 3 2 2 1 0 1 1 0 1 1 1 0 1 3 3 1 6 4 2 3 6 7 7 8 8 8 8
13 13 12 12 12 12 12 12 11 10 8 9 10 10 10 11 10 9 9 9 8 8 6 6 6 6 7 6 8 8 7 6 7 7 9 8 6 5 7 6 7 7 8 8 8 8 8 7 8 7 7 7 7 9 12 12 11 10 5 2 1 1 1 0 1 2 1 0 2 2 2 2 2 4 5 4 2 3 4 5 6 7 7 8 7
12 14 14 13 11 12 12 12 12 11 8 8 7 9 11 11 9 8 9 10 9 6 6 7 7 7 8 8 8 9 9 7 8 9 10 9 9 7 6 7 7 7 7 6 7 8 9 7 7 8 10 8 8 9 12 13 13 13 7 4 3 1 1 2 4 3 2 2 0 3 7 7 7 6 7 8 8 6 4 4 4 6 7 8 7
11 12 13 12 12 13 13 12 12 9 7 9 9 10 10 9 8 7 9 9 7 4 5 7 8 9 9 7 8 9 9 9 9 8 8 8 8 8 8 7 7 6 6 6 6 7 9 8 7 6 7 7 9 9 11 13 14 15 14 6 5 5 5 4 4 5 4 3 3 1 8 10 8 8 8 7 7 8 7 7 6 7 8 9 7
10 11 11 10 9 10 11 11 8 7 7 8 9 10 9 9 8 8 7 6 5 5 6 7 7 9 9 9 7 8 10 10 9 9 9 8 8 8 7 8 7 5 6 6 7 7 8 8 7 7 7 8 7 8 10 13 14 14 15 11 7 7 5 4 4 4 3 4 3 4 3 9 12 12 11 10 8 7 5 7 8 8 7 10 10
9 9 10 10 10 11 12 10 8 7 8 8 9 10 8 8 8 8 5 3 4 6 7 8 8 9 9 9 8 8 8 8 8 8 9 9 8 8 7 6 5 6 7 7 6 6 7 7 7 8 9 9 10 12 7 12 13 14 13 13 7 7 7 5 5 4 5 4 5 5 5 10 13 12 11 10 8 6 6 4 6 9 12 11 7
11 10 9 11 10 10 10 9 7 7 7 8 11 10 8 8 8 5 3 3 5 6 7 8 8 9 9 8 8 8 7 7 7 8 8 8 7 8 8 7 7 7 7 6 6 5 6 6 6 6 7 7 7 7 9 8 10 11 12 12 13 10 11 6 4 4 5 5 5 6 7 12 12 11 10 10 8 8 6 3 7 10 9 7 6
9 10 10 12 12 10 10 9 7 6 6 6 8 9 8 9 7 3 3 4 6 7 7 8 8 8 8 8 8 8 7 7 8 7 8 8 8 8 7 6 5 5 6 6 5 5 6 6 7 7 6 5 4 3 6 9 9 12 13 13 12 12 11 6 6 6 6 6 8 9 9 13 12 12 11 9 8 6 6 9 10 9 8 6 5
11 10 8 8 11 12 11 10 8 8 6 6 6 9 10 9 4 3 4 5 6 7 7 8 8 7 7 7 7 7 7 7 7 7 7 7 7 7 7 5 5 5 5 6 5 5 6 6 7 7 5 5 4 5 6 9 12 11 13 12 12 12 11 8 5 5 5 5 6 9 9 12 11 12 11 8 6 13 15 14 12 12 8 5 6
10 10 9 10 11 11 12 11 10 8 7 6 6 7 9 7 4 3 4 5 6 7 7 7 7 7 8 8 9 9 9 8 8 8 8 7 7 7 6 5 5 5 5 6 6 5 5 6 7 6 5 5 5 5 6 7 7 8 8 10 9 10 9 6 4 5 6 6 10 10 11 12 11 11 8 8 8 9 10 12 12 13 8 9 9
11 10 10 10 10 10 11 11 10 8 7 7 7 7 7 6 5 5 6 6 7 7 8 7 7 7 7 8 9 8 8 8 8 7 7 7 7 6 6 6 5 6 6 6 6 6 6 6 6 6 5 5 6 6 6 6 6 5 6 6 7 7 8 8 7 7 9 8 9 10 8 8 8 7 7 6 7 8 8 8 8 8 7 7 8
10 9 9 10 10 11 11 10 9 7 7 7 7 6 5 4 5 6 7 7 7 7 8 8 8 7 7 8 9 10 9 7 7 7 7 7 7 6 7 7 6 5 5 6 6 6 5 5 5 4 4 4 5 6 6 6 6 6 6 6 6 6 6 6 6 6 6 7 7 7 7 8 8 7 7 6 7 7 7 7 7 7 7 7 9
9 8 8 9 10 11 11 11 8 7 7 7 7 6 5 6 5 6 7 8 9 10 9 10 9 8 7 6 7 7 7 8 8 8 8 7 6 6 7 7 7 6 5 4 5 6 5 5 4 5 4 4 5 6 5 5 5 6 4 5 5 5 5 5 5 7 4 4 5 6 7 7 7 7 7 7 7 7 7 7 7 7 6 6 7
6 7 8 9 10 11 11 10 8 7 7 7 7 6 6 5 5 6 8 9 9 9 9 8 7 7 7 6 6 6 6 6 7 8 9 9 11 11 9 5 6 8 11 11 9 6 4 4 6 6 6 5 5 4 5 5 5 5 4 3 3 4 5 4 6 9 5 5 5 5 6 6 6 6 6 6 7 7 7 7 7 8 7 7 8
4 6 8 7 7 9 10 9 7 7 7 7 7 6 6 6 5 6 7 8 7 7 7 7 7 7 6 6 6 6 6 6 6 6 6 8 8 9 12 12 9 8 9 10 11 11 14 12 7 5 6 8 7 6 6 5 5 2 2 1 3 5 7 8 9 4 4 6 6 6 6 6 6 5 6 6 6 6 6 6 7 7 6 7 8
Wind_Direction
187 184 183 181 181 182 184 179 179 176 174 176 185 176 172 172 178 185 180 182 176 174 177 183 181 172 183 190 180 174 177 169 175 168 168 165 143 168 146 164 150 171 148 157 125 111 76 78 100 105 113 78 61 42 26 21 22 17 16 359 7 19 40 19 30 343 357 39 36 40 46 17 298 251 290 297 292 307 301 273 288 287 282 280 296
180 177 183 179 179 180 177 178 178 178 180 180 184 181 174 175 178 180 180 186 188 184 181 189 190 188 183 182 182 169 175 183 174 180 168 147 157 159 161 121 126 176 147 167 150 152 126 131 120 108 95 76 54 42 31 19 23 28 17 13 19 13 32 11 19 327 44 23 14 25 30 67 56 33 344 29 347 155 223 248 269 298 319 331 325
186 185 180 184 179 177 180 183 186 188 179 182 183 178 178 182 180 176 185 190 193 188 183 190 193 191 195 154 183 156 193 198 178 143 160 164 154 154 143 136 153 167 181 160 146 159 147 139 131 96 64 56 54 44 36 29 30 36 27 15 2 33 31 35 16 350 33 22 34 352 32 21 104 62 31 46 22 39 345 337 327 316 341 328 330
193 188 183 182 177 178 182 184 183 183 178 182 183 182 181 186 186 183 185 191 194 192 193 183 169 161 164 149 151 179 170 172 181 168 185 186 170 165 160 154 174 178 159 143 139 149 171 160 132 106 77 57 40 30 19 36 38 59 28 16 358 358 40 45 28 18 0 360 44 23 27 3 38 25 4 36 18 62 31 53 60 330 351 337 294
195 192 187 181 179 183 185 183 180 183 184 184 185 183 187 184 181 179 179 186 191 192 190 184 164 172 175 142 154 144 145 174 191 192 195 191 199 193 174 172 179 199 176 192 343 120 155 167 155 111 81 62 12 3 21 30 33 48 34 6 7 359 18 19 39 26 20 359 5 359 59 57 25 17 356 55 20 69 64 51 54 295 6 9 300
193 192 186 183 186 184 178 177 186 190 191 189 187 184 183 181 177 175 174 181 187 186 186 183 178 175 182 181 175 179 178 185 199 196 188 193 200 172 165 179 187 199 195 221 314 15 156 159 158 139 110 99 323 357 20 33 60 30 45 0 7 16 351 3 30 59 28 38 34 55 18 16 348 346 346 50 4 42 46 72 59 346 331 264 275
197 195 188 189 188 182 179 183 191 196 192 183 183 183 183 180 178 178 176 176 179 182 189 181 173 179 185 191 190 186 182 187 198 202 194 182 199 178 175 175 189 204 193 204 205 177 173 161 164 185 140 314 339 258 286 332 47 29 19 17 358 359 354 10 17 34 83 56 53 58 67 358 1 351 22 343 62 48 43 46 52 53 4 331 319
193 195 189 190 185 186 187 188 192 197 185 179 179 178 182 181 179 181 177 174 174 178 183 181 177 180 187 195 195 197 195 179 183 194 197 193 198 199 179 188 185 203 200 193 212 203 187 169 172 191 221 267 274 265 312 2 11 29 23 359 351 2 9 16 9 19 23 50 35 27 62 46 3 349 10 15 356 9 43 50 51 53 80 64 35
195 191 191 190 187 192 190 189 194 189 182 182 181 177 179 181 183 182 180 175 171 174 177 185 186 181 186 194 198 202 202 184 180 184 193 196 206 194 199 192 190 198 210 209 203 216 206 194 182 206 226 240 256 265 264 303 322 338 28 342 347 24 9 26 12 21 7 38 19 32 29 49 95 45 17 300 1 10 48 34 18 47 88 61 33
200 196 193 192 191 194 195 192 183 187 185 178 173 171 175 177 183 184 185 181 171 174 180 184 188 183 187 194 200 196 195 183 193 183 190 191 206 201 200 201 198 192 198 212 215 214 219 210 216 222 234 246 255 263 284 285 269 266 308 320 324 230 44 336 34 39 25 36 39 7 26 32 37 37 319 3 33 346 4 19 28 18 40 38 17
195 199 196 194 195 194 188 188 188 180 176 172 174 174 174 179 182 187 190 185 174 174 179 183 187 190 193 194 200 201 194 192 192 198 191 193 210 205 203 203 198 195 199 193 216 218 220 223 232 228 244 246 245 242 252 258 235 217 237 302 270 210 188 188 90 73 52 26 50 34 24 30 27 5 359 349 342 359 355 17 35 31 19 26 20
191 190 196 189 179 184 186 189 181 176 168 173 178 175 176 178 180 186 189 188 182 180 179 184 186 190 196 194 198 201 195 194 205 207 201 207 210 210 210 208 204 201 208 208 209 214 216 225 230 236 237 243 240 237 253 255 243 233 250 283 268 206 213 220 318 46 23 38 4 46 26 21 33 360 11 349 321 350 334 346 21 351 32 37 19
190 188 184 179 179 181 184 181 172 174 179 180 181 179 178 178 179 183 189 190 189 184 184 184 185 188 192 194 199 197 197 204 206 211 204 209 210 211 207 214 210 212 211 215 211 210 209 218 223 226 229 236 253 253 247 247 259 252 258 275 272 213 208 227 261 288 331 348 347 12 347 9 23 20 11 0 19 319 295 333 20 4 334 34 25
186 183 185 181 179 185 185 177 180 185 186 181 180 179 178 181 181 186 189 189 187 187 188 187 190 188 188 192 194 191 199 204 207 212 207 208 205 213 214 215 212 215 210 214 217 209 214 216 218 225 232 240 244 246 245 247 248 258 249 261 251 226 243 252 280 296 273 244 301 312 316 345 347 6 12 346 3 346 342 6 349 330 302 9 38
181 183 187 185 184 184 182 183 187 187 187 184 181 178 175 180 180 187 186 187 190 189 187 191 192 191 189 192 191 190 199 202 207 211 207 205 209 210 213 219 219 214 215 213 212 213 215 215 218 226 228 233 234 236 236 236 243 259 269 268 282 230 236 260 280 281 274 270 269 269 302 286 341 331 338 0 351 351 347 353 349 351 341 329 353
184 187 191 189 186 185 186 186 186 181 183 186 184 178 183 186 184 187 187 184 190 191 191 192 192 189 189 191 192 192 194 200 203 203 209 213 208 211 208 214 224 216 210 204 203 212 210 214 217 225 229 226 222 225 232 233 227 244 256 256 261 240 245 247 268 275 272 274 285 298 283 287 297 315 335 345 349 347 334 333 330 337 348 337 341
175 183 186 183 182 187 190 187 184 182 184 188 187 184 187 184 184 187 189 187 189 192 191 191 190 188 192 195 194 194 196 201 208 209 215 211 214 215 218 219 217 219 215 204 204 200 206 213 218 223 213 219 218 220 222 224 229 238 240 245 257 259 257 264 269 270 278 280 277 273 288 299 301 310 293 312 348 317 308 313 302 324 336 323 332
171 176 177 179 183 186 190 189 185 185 189 192 190 189 183 186 187 186 187 189 191 193 195 192 190 193 193 195 197 198 201 207 212 207 203 199 204 212 217 206 217 219 220 218 202 196 199 205 220 222 222 214 218 218 215 218 222 235 236 242 249 264 265 263 265 274 277 268 273 275 274 282 293 275 264 289 306 315 299 293 307 309 277 308 320
158 169 175 178 182 184 189 189 191 193 194 196 189 182 181 186 192 195 194 193 191 194 197 196 194 197 198 199 198 196 199 205 209 207 198 201 207 201 210 213 213 205 205 208 207 206 202 205 212 219 212 218 219 225 219 221 221 237 236 241 226 228 246 260 262 261 273 270 268 275 276 285 299 307 304 282 305 302 305 295 302 303 287 288 302
157 161 174 177 180 185 188 187 189 191 189 188 185 187 191 191 189 196 194 189 189 194 193 196 198 202 200 196 197 194 195 198 197 199 206 206 204 204 207 205 210 204 207 201 210 209 207 212 212 216 221 221 221 224 224 222 224 239 246 247 230 221 241 253 268 268 275 275 274 271 272 279 291 296 294 290 276 288 299 298 298 305 295 287 284
144 149 152 167 173 181 183 185 191 188 186 187 189 192 193 192 194 192 188 188 190 194 194 196 196 200 199 199 201 198 198 198 202 198 209 208 205 204 205 212 191 203 197 199 204 209 209 214 220 218 223 220 223 230 229 230 230 234 240 251 254 238 245 255 256 266 267 262 270 278 282 283 283 286 289 292 282 270 271 268 274 272 278 274 276
138 139 147 154 161 175 181 181 180 173 175 189 191 187 189 193 190 188 190 195 197 194 195 191 192 194 201 202 206 199 197 196 202 198 208 206 204 200 199 194 202 197 199 202 203 205 208 211 219 217 220 221 215 214 223 221 227 234 242 238 233 235 245 255 264 266 265 265 272 278 280 283 270 276 287 286 284 287 277 277 276 277 282 283 264
147 140 144 148 149 153 163 168 175 176 184 188 188 190 190 190 180 181 186 192 196 194 190 185 186 189 196 200 202 200 198 202 208 207 211 213 207 204 190 201 211 196 193 206 204 206 196 202 213 217 217 222 218 220 216 215 219 224 234 246 249 242 246 256 257 261 266 268 270 271 275 273 262 269 272 280 288 287 288 288 289 292 292 289 282
155 149 152 165 157 149 148 157 158 169 182 188 189 191 189 184 184 183 192 191 191 180 173 175 184 194 198 198 199 205 207 209 215 216 218 219 221 213 197 208 212 210 195 198 206 205 197 197 207 208 213 218 215 218 217 215 217 222 226 228 232 234 242 249 256 266 270 267 272 275 278 283 285 280 281 285 284 283 284 275 276 274 272 280 281
165 164 164 169 174 167 166 158 149 180 198 194 181 182 184 179 178 188 190 181 184 175 176 184 190 192 195 202 205 206 207 213 220 221 220 221 221 223 211 215 220 220 212 201 195 201 200 199 209 210 211 212 216 217 217 222 220 220 224 231 233 229 233 238 248 255 258 263 267 271 282 283 280 283 284 284 290 290 287 281 280 280 275 279 274
170 170 170 175 177 175 161 152 154 194 181 173 178 180 176 160 169 181 166 154 157 156 174 186 191 199 200 203 209 210 211 213 219 223 224 220 219 220 218 213 220 224 221 221 212 207 205 210 217 222 223 224 222 220 219 227 227 221 218 227 229 233 238 240 246 248 251 254 263 267 272 273 276 276 285 291 293 292 287 286 288 289 289 288 275
166 174 177 175 179 179 172 167 156 159 165 182 172 149 129 127 142 151 161 165 163 161 161 175 191 205 208 209 208 213 215 219 214 220 222 215 216 219 220 220 215 221 225 231 224 222 209 225 225 231 237 236 234 234 228 230 235 234 229 230 239 239 238 240 244 251 256 255 257 261 264 264 265 265 273 280 283 281 281 286 282 284 286 279 280
152 160 167 169 163 159 173 177 166 160 169 174 166 153 165 175 174 167 165 174 175 167 163 168 176 195 205 208 207 210 217 220 218 212 214 219 219 218 219 223 220 218 225 230 235 230 224 225 232 238 237 244 241 243 237 237 241 244 243 240 240 245 251 248 250 249 255 258 257 258 264 263 259 261 262 269 273 278 284 286 286 282 283 279 284
148 142 143 135 138 152 165 165 169 172 171 167 165 166 175 184 184 169 167 143 126 145 147 158 171 185 196 211 215 215 212 212 217 212 214 216 215 213 212 216 216 224 224 224 227 233 232 232 231 231 238 238 241 242 243 240 243 240 244 253 250 248 250 255 258 262 260 256 258 260 259 262 256 249 253 261 271 278 283 287 284 282 279 282 285
145 133 126 125 124 131 144 158 153 165 164 172 174 173 179 181 179 172 168 154 158 149 158 172 165 185 194 192 189 185 202 220 216 213 211 210 215 213 213 208 206 210 207 211 214 219 229 230 229 224 227 233 233 239 222 219 237 261 267 271 267 261 263 264 265 269 269 265 264 267 271 258 246 246 249 248 245 248 244 255 273 281 284 287 290
139 130 118 111 106 103 102 97 96 110 126 129 94 176 191 183 172 170 163 158 162 164 170 173 173 168 181 190 182 183 194 215 221 219 201 200 197 195 195 188 188 192 193 180 199 200 212 219 226 232 225 227 236 238 208 215 224 236 255 263 263 262 260 256 256 257 265 270 273 273 276 260 239 234 235 234 244 244 243 243 248 253 260 270 282
145 128 118 111 100 97 95 91 83 77 73 67 68 68 65 108 181 169 162 142 144 158 168 172 171 172 180 184 191 196 207 219 230 240 221 206 188 173 171 162 166 160 162 181 172 152 148 187 206 217 222 224 103 32 8 352 240 230 226 248 255 258 256 254 256 260 263 269 273 275 274 275 269 270 282 273 238 231 235 242 243 245 247 248 249
147 135 124 110 102 101 100 95 90 83 77 77 77 72 72 76 88 166 182 185 177 168 155 178 184 186 188 159 172 173 170 167 204 231 215 200 191 187 180 173 160 157 152 164 149 152 136 128 121 133 117 94 73 18 13 23 169 211 215 228 248 251 254 255 259 260 266 269 273 276 278 278 283 274 258 265 274 275 245 232 240 246 247 242 242
139 134 124 112 104 98 93 91 91 92 90 87 81 81 76 69 67 79 112 110 114 106 106 95 93 139 162 161 153 136 137 136 142 188 224 205 192 178 166 157 144 150 151 158 170 132 111 105 98 105 86 61 45 10 0 21 18 288 193 197 233 240 244 255 260 264 269 271 273 276 277 276 280 279 272 272 278 279 286 282 272 265 267 246 225
132 126 117 107 108 106 101 97 98 98 93 86 78 79 80 69 60 71 70 83 87 96 92 92 86 95 111 122 133 128 119 123 141 155 149 119 87 72 75 70 62 75 106 100 103 109 98 102 116 114 94 69 45 12 17 14 10 343 172 218 239 234 231 230 238 246 256 265 270 271 274 279 285 284 286 296 289 282 281 278 277 279 274 276 276
132 117 106 104 99 99 101 100 99 100 96 89 91 86 78 74 73 70 62 62 66 75 90 98 104 101 102 104 103 107 108 101 93 82 79 80 67 54 57 77 110 106 90 105 104 106 116 121 118 107 96 72 50 19 14 18 18 9 278 214 148 270 272 272 214 206 222 232 248 263 271 276 286 285 358 29 328 302 285 278 276 276 276 273 269
122 115 110 103 99 97 97 96 94 95 97 98 97 89 89 84 75 78 74 66 69 53 37 72 89 85 95 99 98 103 106 107 101 98 96 97 112 115 115 119 108 102 97 92 95 88 87 89 92 94 86 70 52 19 13 19 20 10 306 121 127 135 130 292 22 4 191 151 121 57 276 286 282 328 57 29 22 269 274 275 277 279 281 284 281
119 115 114 110 106 105 100 97 90 81 85 96 95 94 91 87 78 73 73 66 63 72 59 54 60 71 83 91 101 97 90 90 100 108 109 106 101 97 101 96 92 93 90 87 90 87 81 84 89 92 94 89 66 36 25 22 19 13 3 91 99 113 153 281 259 281 299 343 88 71 348 342 348 52 38 47 344 269 270 275 280 281 283 281 283
127 126 121 115 108 106 104 101 95 87 81 85 86 86 88 87 82 82 84 79 72 69 77 83 87 84 79 75 72 87 90 80 89 93 94 91 91 89 85 80 77 75 75 79 79 81 78 57 56 83 77 72 67 49 35 30 25 16 9 70 40 7 338 339 302 285 292 293 241 110 66 43 43 45 22 8 355 323 292 285 283 285 281 282 290
120 116 113 112 114 109 103 99 98 98 99 98 94 86 83 84 84 71 66 73 74 57 82 85 85 81 74 62 73 87 91 88 80 68 65 71 81 79 77 82 75 73 79 67 70 74 79 78 71 69 76 73 62 53 37 36 34 28 12 26 54 59 42 19 354 339 315 304 334 78 105 80 59 28 8 357 337 333 311 295 284 286 292 290 307
118 111 112 109 102 98 98 99 97 103 103 93 90 88 83 80 77 71 64 60 82 94 87 92 96 94 89 84 77 85 93 92 91 89 88 83 79 80 71 74 73 67 76 77 73 70 70 65 59 53 51 65 64 59 46 37 38 37 28 22 56 39 23 20 8 357 344 355 2 6 43 68 14 357 345 340 331 322 309 301 290 281 311 349 342
106 111 111 107 103 101 102 99 98 101 99 96 93 87 82 77 72 65 49 42 69 86 92 87 81 86 91 91 89 86 84 88 89 91 89 85 84 84 82 81 80 69 64 67 72 80 80 74 66 55 50 50 52 49 48 43 38 38 39 34 44 40 12 357 10 9 355 5 359 4 2 15 355 340 330 327 323 318 308 288 299 328 331 332 315
133 125 120 116 107 98 92 90 85 86 88 97 96 92 88 80 72 60 44 59 75 82 81 83 83 82 79 76 75 80 83 88 88 90 93 93 94 93 91 90 90 87 83 78 76 87 89 86 79 74 67 58 55 53 43 54 52 44 40 42 41 36 4 11 11 12 357 352 4 358 360 351 338 331 326 323 320 318 279 285 296 299 304 303 281
128 124 123 115 108 104 97 85 76 68 67 77 95 96 91 83 72 47 62 84 89 90 89 86 84 81 80 78 79 78 78 82 84 83 81 80 80 85 87 89 94 100 103 98 90 87 89 85 90 83 70 66 60 59 56 45 50 46 43 41 39 35 29 15 21 25 9 11 12 10 345 327 326 326 327 326 319 327 339 321 309 305 300 263 292
127 121 113 109 111 110 103 90 77 70 64 65 79 96 91 83 68 67 74 92 96 99 99 99 98 92 89 88 80 77 74 72 70 73 74 74 72 75 81 72 74 76 76 80 80 77 79 87 84 74 65 50 39 42 43 37 37 47 45 40 42 36 31 18 39 31 14 7 334 323 340 348 351 357 353 358 20 22 4 357 344 326 298 310 328
118 117 113 111 106 100 96 92 79 71 68 59 58 77 91 94 101 86 93 99 104 103 101 101 101 98 99 100 97 89 82 78 76 72 69 67 71 69 71 71 74 73 72 75 74 76 79 83 88 82 70 60 47 43 42 37 33 38 46 33 34 42 32 19 32 25 349 360 14 10 17 5 17 15 12 20 19 14 6 7 13 9 3 4 2
125 122 121 115 109 101 97 92 85 75 76 74 70 73 90 105 102 107 105 102 102 105 106 106 104 102 96 98 100 102 97 86 81 81 78 76 73 71 67 65 63 65 70 75 77 78 80 83 90 88 76 64 54 45 36 31 25 27 35 34 29 30 16 13 22 14 10 14 17 14 5 356 5 359 12 8 16 3 5 8 11 8 360 9 3
119 121 116 110 104 103 99 92 83 73 71 74 76 76 78 87 92 100 105 104 103 108 112 110 111 109 105 100 96 92 94 90 82 81 81 78 73 69 67 54 41 40 61 71 74 74 73 78 84 83 78 71 66 56 39 24 19 17 20 29 37 32 28 27 18 11 1 8 8 4 12 17 13 11 14 9 14 10 10 6 9 2 352 7 3
104 107 108 106 109 104 101 98 92 84 79 72 69 71 73 77 77 94 104 103 106 104 104 113 116 120 108 94 98 98 94 93 88 78 63 46 46 62 71 65 42 30 22 56 87 88 83 79 75 68 65 70 59 56 42 3 354 347 351 18 38 30 19 33 17 325 324 21 18 23 18 18 18 16 13 9 5 2 6 0 3 2 351 9 2
66 81 80 91 100 107 107 104 97 92 86 79 69 60 58 68 71 94 111 115 111 104 98 97 100 102 102 98 97 93 92 98 101 99 96 81 56 45 29 57 73 40 42 39 40 57 27 41 72 58 33 40 55 47 32 4 345 327 315 320 329 328 326 338 332 315 348 32 33 31 29 21 15 15 10 8 3 359 358 356 358 358 357 6 358
59 96 105 101 103 107 110 108 105 99 92 86 77 66 61 58 63 70 88 102 104 100 96 98 94 93 91 99 99 95 90 88 91 100 104 106 103 75 57 54 61 66 60 56 58 51 42 28 22 74 69 57 48 25 15 9 19 356 247 135 46 27 19 359 348 331 45 37 30 30 27 24 17 17 14 7 359 356 357 351 352 352 356 359 358